User: anonymous   Login
Location: Unspecified
(0.0000°N, 0.0000°E)
Time: 18:28:24
(UTC+00:00)
Language:

Aussat K1 - Orbit

View from above orbital plane
View from above orbital plane
View from above satellite
View from above satellite

Ground track
Ground track

The orbit data is extracted from the following two-line orbital elements,

1 15993U 85076B   16177.82455990 -.00000198 +00000-0 +00000-0 0  9996
2 15993 015.2493 011.0837 0003706 246.7403 301.6419 00.99769096083241
Epoch (UTC): 25 June 2016 19:47:21
Eccentricity: 0.0003706
inclination: 15.2493°
perigee height: 35912 km
apogee height: 35943 km
right ascension of ascending node: 11.0837°
argument of perigee: 246.7403°
revolutions per day: 0.99769096
mean anomaly at epoch: 301.6419°
orbit number at epoch: 8324

The dashed part of the orbit path shows where the satellite is in the earth's shadow,  

DLR